Theta_e
315 320 322 322 322 320 318 318 319 321 323 325 326 326 326 325 323 323 323 317 312 315 318 316 315 314 315 314 311 309 310 309 309 309 309 310 310 310 310 310 310 310 310 310 310 309 309 309 310 310 310 310 310 311 312 314 316 316 319 320 321 321 321 322 323 324 323 322 322 323 323 323 323 322 322 321 320 320 319 319 319 320 320 320 320 320
316 321 324 323 320 318 318 317 316 317 318 319 321 321 322 323 322 322 321 317 311 315 321 319 316 315 314 314 311 309 309 308 308 309 309 309 310 310 311 310 310 310 309 309 309 309 309 309 310 309 309 310 311 313 312 313 316 317 319 322 323 322 321 321 322 323 322 321 323 324 323 323 322 321 321 320 319 318 318 318 318 319 319 320 320 320
318 320 320 319 315 315 317 317 316 317 317 318 319 318 321 322 320 321 322 317 313 315 323 323 318 317 316 315 312 309 309 310 311 311 312 312 310 310 311 310 310 309 309 309 309 309 308 309 310 309 310 312 312 314 314 313 316 319 319 321 323 323 322 321 321 321 322 322 322 322 322 321 320 319 319 318 318 318 317 317 317 317 318 318 318 317
322 324 320 313 313 316 318 318 317 316 317 319 319 318 320 321 320 323 323 318 316 316 319 321 318 316 316 316 315 312 310 312 312 312 313 312 311 311 311 311 311 310 309 309 309 309 308 308 310 309 310 313 314 315 315 314 318 319 319 320 321 321 322 322 321 322 323 322 322 321 321 320 319 318 318 317 317 316 316 316 315 315 313 313 313 310
322 323 317 312 315 318 318 318 318 319 319 320 320 319 320 321 321 323 322 320 323 324 318 317 319 321 321 318 318 315 311 311 311 311 312 311 311 311 311 311 310 310 310 310 309 309 308 308 310 309 310 313 314 315 316 316 319 320 319 320 320 319 320 320 320 320 320 320 320 320 319 319 318 317 316 316 316 314 314 313 311 309 307 307 306 305
318 316 315 318 318 317 319 319 320 322 321 321 322 320 319 321 321 321 322 321 327 331 321 317 323 331 331 325 321 318 315 314 312 309 310 311 310 309 310 309 309 310 310 310 310 310 309 309 310 308 310 313 313 314 317 316 318 320 320 320 320 319 318 317 317 318 318 318 318 317 317 317 316 316 315 314 314 312 310 309 306 304 303 302 302 301
317 314 317 325 322 319 320 320 321 321 319 322 324 322 319 320 321 323 324 322 327 329 321 318 325 330 328 324 324 324 321 321 316 309 308 310 310 309 309 309 309 309 309 309 309 309 309 308 309 309 309 312 312 314 318 316 315 318 319 319 319 319 317 316 317 318 318 318 317 316 315 315 316 315 313 311 310 308 306 304 302 301 300 300 300 299
318 317 318 323 324 323 322 320 322 320 319 325 324 322 322 320 321 323 322 323 326 325 322 323 325 324 323 322 323 325 325 325 322 316 311 308 309 310 309 309 309 309 309 309 308 308 309 308 309 309 309 311 311 313 317 316 314 316 317 317 317 317 316 316 318 317 317 317 317 316 315 315 314 312 310 307 305 304 303 302 300 299 299 298 299 299
317 321 321 320 322 322 322 322 322 319 320 325 321 321 323 322 324 325 324 324 323 322 325 326 322 322 324 323 321 321 323 324 323 321 316 310 309 309 309 309 308 309 309 309 309 309 309 308 309 309 309 312 313 314 315 315 316 317 315 314 315 316 316 316 316 316 316 316 315 315 315 314 311 308 306 304 303 302 301 300 299 299 298 298 298 298
316 318 318 319 321 320 322 323 321 320 320 319 317 321 324 323 327 329 327 327 326 324 326 327 322 322 326 326 323 319 321 325 323 321 316 311 310 310 309 308 308 308 309 309 309 309 309 308 309 308 309 312 314 314 315 314 316 317 314 314 315 316 315 315 315 315 315 314 314 315 314 311 307 305 304 303 302 300 299 299 299 298 298 298 298 297
315 313 313 316 318 316 319 318 315 318 317 315 321 327 327 327 328 329 328 325 326 325 324 326 324 322 326 325 323 322 324 325 322 321 321 314 310 310 309 308 308 308 308 308 308 308 308 308 308 308 310 312 314 314 312 313 315 314 313 314 316 315 314 314 315 315 314 313 313 313 311 307 305 304 304 302 301 299 299 299 298 298 298 297 297 297
316 316 315 315 314 313 318 317 313 314 313 317 330 331 326 328 327 328 327 325 326 326 324 325 323 321 324 323 322 323 321 321 320 323 328 319 309 309 309 308 308 308 308 308 308 307 307 307 308 309 310 312 313 312 311 313 315 314 312 314 316 315 314 314 314 313 312 311 311 309 307 305 304 304 303 302 301 299 299 299 298 298 298 297 297 297
319 321 317 313 313 314 321 322 318 316 316 321 329 327 324 326 325 326 326 325 325 323 319 319 319 320 323 322 323 323 321 322 318 316 320 315 309 310 310 309 308 308 308 308 307 307 307 307 308 309 310 311 312 311 311 314 316 314 313 313 314 314 314 313 312 311 310 309 307 306 304 303 303 303 302 301 300 299 298 299 298 298 298 297 297 296
321 321 316 316 316 316 319 321 321 320 319 320 322 324 325 325 326 329 327 323 324 323 317 315 318 322 323 323 323 322 320 318 314 311 313 312 310 311 311 310 308 307 308 308 307 307 307 307 308 309 310 311 311 311 312 315 316 314 313 312 313 313 313 312 310 309 308 306 304 303 303 302 302 301 300 299 299 299 298 298 298 298 297 297 296 296
322 321 320 319 318 317 318 318 321 323 319 317 320 323 323 324 329 332 329 326 326 325 318 314 319 325 326 325 320 313 310 311 312 313 312 310 311 311 310 309 307 306 307 307 307 307 307 307 307 309 309 310 311 311 313 315 315 313 312 312 313 313 312 311 309 307 305 304 303 302 301 301 300 300 299 298 298 298 298 297 297 297 297 296 296 295
319 323 323 318 315 317 318 316 318 323 320 318 321 324 322 325 327 325 324 324 323 324 320 317 321 324 323 323 316 309 309 310 310 310 311 311 310 309 308 307 306 307 307 306 306 306 307 306 307 308 309 310 310 311 312 314 314 313 312 312 313 312 312 310 307 306 304 303 302 301 300 300 299 299 298 298 298 297 297 297 297 297 296 296 295 295
319 324 321 314 314 315 315 316 315 318 321 319 319 322 321 320 322 322 321 319 319 323 323 320 322 323 323 321 316 315 317 316 311 308 308 309 308 307 306 306 306 306 306 306 306 306 306 306 306 308 309 309 310 310 311 312 312 312 312 312 313 312 311 309 306 304 303 302 301 300 299 299 298 298 297 297 298 297 297 297 296 296 296 295 295 295
322 324 319 314 318 314 310 314 314 311 317 321 321 320 317 317 322 326 325 323 323 325 324 321 321 323 324 323 318 315 317 319 317 313 308 305 305 305 305 306 306 306 306 306 306 305 306 306 306 308 309 309 309 310 310 311 310 311 312 312 312 311 310 308 305 303 303 302 301 299 299 298 298 297 297 297 297 297 297 296 296 296 295 295 295 295
320 321 319 314 317 315 311 315 317 312 312 318 321 318 319 324 325 324 325 326 326 325 325 323 320 320 320 322 321 318 318 321 319 316 312 307 304 303 304 305 305 305 305 305 305 305 305 305 305 307 309 309 309 310 311 310 309 310 311 312 312 310 309 306 304 303 303 302 300 299 298 297 297 297 296 297 297 297 297 296 296 295 295 295 295 294
319 321 322 314 313 315 314 316 320 318 313 313 316 315 318 324 324 323 324 325 326 326 327 326 322 322 321 321 323 321 322 323 318 316 317 311 304 303 304 305 305 305 305 305 305 305 304 305 305 306 308 309 309 310 312 310 309 309 311 311 311 309 307 305 303 303 302 301 300 299 298 297 296 296 296 296 296 296 296 296 296 295 295 295 295 294
318 320 321 316 312 314 318 318 318 319 316 315 318 318 318 318 319 322 322 322 327 327 328 327 324 324 324 321 322 321 320 321 318 319 318 309 305 305 305 306 306 306 306 306 305 305 304 304 304 305 308 309 309 310 312 311 309 309 311 311 310 307 305 304 303 302 301 300 299 298 297 297 296 296 296 296 296 296 296 295 295 295 294 294 294 294
318 321 323 320 316 316 320 318 314 316 318 317 318 318 318 317 319 322 321 322 324 324 326 327 324 324 322 318 320 321 319 317 314 315 314 309 306 307 306 307 307 306 307 306 305 305 305 304 304 305 307 309 309 309 311 310 309 310 311 310 308 306 304 303 302 302 301 300 298 298 297 296 296 296 296 295 295 295 295 295 295 294 294 294 294 294
319 324 325 322 319 317 318 314 309 313 318 317 317 319 319 317 318 322 322 322 322 321 323 322 322 323 320 317 322 319 313 311 309 309 309 309 308 308 306 306 306 306 307 306 305 305 304 304 304 304 306 309 308 309 310 310 309 310 310 309 307 305 304 303 302 301 300 299 298 297 296 296 296 296 295 295 295 295 295 295 294 294 294 293 293 293
317 321 322 321 319 318 318 315 311 313 316 316 318 320 319 317 318 321 322 322 322 322 322 321 323 322 316 314 314 307 305 307 308 308 308 308 309 308 307 306 305 305 306 305 305 305 304 304 304 304 305 308 309 309 309 310 310 311 310 308 307 305 303 302 302 301 300 299 297 297 296 296 296 295 295 295 295 295 294 294 294 293 293 293 293 293
317 320 322 322 322 321 321 319 316 315 315 316 319 318 316 317 318 319 320 320 321 322 322 322 323 320 317 314 310 307 309 309 307 308 309 308 308 309 307 306 305 305 305 305 304 304 304 304 304 304 305 307 309 309 309 310 311 311 310 308 306 305 303 302 301 300 299 298 297 296 295 295 295 295 295 294 294 294 294 294 293 293 293 293 292 292
320 323 321 320 323 323 322 322 319 317 315 316 319 317 316 317 318 318 319 319 320 321 321 322 322 320 319 316 313 315 318 316 311 309 309 310 309 308 308 306 305 305 305 304 304 303 304 304 304 304 304 306 308 309 309 310 311 310 309 307 306 304 303 302 301 300 299 298 297 296 295 295 295 295 294 294 294 293 293 293 293 292 292 292 292 291
320 323 320 319 322 322 323 324 321 319 317 317 318 317 316 316 317 318 319 320 321 322 321 320 320 320 320 318 317 318 320 323 320 310 307 310 310 308 308 307 305 305 305 304 303 303 303 304 304 304 304 305 307 309 310 310 310 310 308 307 305 304 303 302 301 299 298 297 297 296 295 295 294 294 294 294 293 293 293 292 292 292 292 291 291 291
320 321 320 321 321 319 323 324 319 317 318 318 317 317 316 316 316 317 319 319 321 322 321 320 320 320 320 318 319 319 319 324 320 309 308 312 311 309 308 306 305 305 304 303 303 303 304 304 304 304 304 304 306 308 309 309 309 309 307 306 305 304 303 302 300 299 298 297 296 296 295 294 294 293 293 293 293 292 292 292 291 291 291 291 290 290
321 321 319 321 320 319 321 321 317 316 317 317 317 317 316 316 316 316 317 318 319 320 320 320 321 321 319 318 319 318 316 317 316 312 312 313 311 309 307 306 305 305 304 303 303 304 304 305 305 305 304 304 305 306 307 307 307 307 306 305 304 303 303 301 300 299 298 297 296 295 295 294 293 293 293 293 292 292 291 291 291 291 290 290 290 290
318 320 319 320 320 319 319 318 317 318 317 317 317 316 316 316 315 315 316 316 317 318 319 319 320 320 318 318 319 318 315 313 312 311 311 311 310 309 307 306 306 305 304 304 304 304 304 304 304 303 303 303 304 305 305 306 306 305 305 305 304 303 302 301 300 299 298 297 296 295 294 293 293 293 292 292 292 291 291 291 291 290 290 290 290 290
316 318 317 317 319 319 318 317 318 319 319 318 318 316 315 315 314 314 315 315 316 317 317 317 319 318 316 315 316 315 312 311 310 309 309 310 309 307 306 306 305 304 304 304 303 303 302 302 302 302 302 303 303 304 304 305 305 304 304 304 303 302 302 301 299 298 297 297 296 294 294 293 293 293 292 292 291 291 291 290 290 290 290 290 290 290
315 315 314 316 318 319 318 318 318 318 317 317 318 318 316 314 314 313 314 315 315 316 317 316 317 318 316 315 314 312 310 309 308 308 308 308 309 308 307 307 306 305 305 304 303 303 303 302 302 303 303 304 303 304 304 304 304 304 303 303 303 302 301 300 299 298 297 296 295 294 294 293 293 292 292 291 291 291 290 290 290 290 290 290 290 290
315 314 314 315 318 318 318 318 317 316 317 318 318 318 317 315 314 314 314 314 314 315 316 317 317 316 316 317 316 315 314 311 308 309 310 309 308 309 308 308 308 307 306 306 305 305 304 303 303 303 303 304 304 304 304 303 303 303 303 303 302 301 300 300 299 298 297 296 295 294 293 293 293 292 292 291 291 290 290 290 290 290 290 290 290 290
313 314 315 314 317 318 316 316 316 317 319 320 319 319 319 317 315 315 314 314 313 313 314 316 316 315 316 317 317 316 315 312 311 312 314 312 311 310 309 310 310 309 308 308 307 306 305 304 304 303 303 303 303 303 302 301 301 302 301 301 300 300 299 299 298 297 296 295 295 294 293 293 292 292 291 291 290 290 290 290 290 289 289 289 289 290
313 314 314 314 316 317 314 314 318 319 319 318 317 316 317 316 316 316 316 315 314 314 314 314 314 314 314 314 313 312 312 313 313 314 314 313 313 312 312 312 312 311 309 309 307 306 306 305 305 304 304 304 303 302 301 301 301 300 299 299 299 299 298 298 297 297 296 295 294 294 293 292 292 292 291 291 290 290 290 290 289 289 289 289 289 290
313 313 313 314 314 314 314 316 319 319 317 316 314 310 311 315 316 315 316 316 314 314 314 313 313 313 312 311 310 311 311 311 311 311 311 312 312 311 312 312 312 311 310 309 308 308 307 307 306 306 306 305 304 303 302 301 300 300 299 299 299 298 297 297 296 296 296 295 295 294 293 292 292 291 291 290 290 290 290 289 289 289 289 289 289 289
313 313 312 313 315 314 315 316 317 317 317 317 316 312 311 315 317 316 318 317 315 314 313 313 314 313 312 311 309 310 309 309 310 310 309 310 311 309 309 310 310 310 309 309 309 308 308 308 307 307 307 306 305 304 303 302 301 300 299 299 298 298 297 296 296 296 296 296 295 294 293 292 292 291 291 291 291 290 290 289 289 289 289 289 289 289
311 312 311 313 314 314 315 316 316 317 317 317 318 314 309 309 312 314 316 317 317 315 312 313 314 314 313 311 307 307 308 310 313 312 309 309 310 309 308 309 309 309 309 309 309 308 308 307 307 306 306 305 305 305 304 303 302 300 300 299 298 298 297 297 297 297 297 296 295 294 293 292 292 291 291 291 291 290 290 289 289 289 289 289 289 289
308 309 310 312 314 314 315 316 316 318 317 316 317 312 306 306 309 311 314 316 316 311 308 311 313 312 312 308 304 306 310 313 314 312 309 309 310 309 310 310 310 310 310 310 309 309 308 308 307 306 305 305 305 304 303 302 301 300 300 300 299 298 297 298 298 297 296 296 295 294 294 293 292 292 291 291 291 290 290 289 289 289 289 289 289 289
307 308 309 311 314 314 315 315 316 316 316 317 315 308 304 306 309 312 316 318 312 306 304 308 309 308 308 306 305 309 313 313 313 312 309 310 311 310 310 310 310 310 310 309 310 309 309 308 308 307 307 306 305 304 303 302 301 300 300 300 299 298 298 299 298 297 296 296 295 294 294 293 293 292 292 291 291 290 290 289 289 289 289 289 289 289
307 308 309 311 313 314 314 316 315 315 317 317 312 304 303 307 311 314 319 316 309 305 305 307 308 308 307 305 305 309 311 310 312 312 310 310 310 309 310 310 309 309 309 309 309 309 309 309 308 307 307 306 305 304 303 302 301 301 300 299 298 299 300 299 297 296 296 295 295 294 294 293 293 292 292 291 291 290 289 289 289 289 289 289 288 288
308 309 309 311 312 313 314 315 315 316 316 312 306 302 304 311 316 316 314 309 305 306 307 308 308 308 308 306 307 309 310 309 310 310 309 309 308 308 309 309 308 309 308 308 308 308 308 307 306 306 305 304 304 303 302 302 301 300 300 299 299 300 299 297 296 296 295 295 294 294 294 293 293 292 292 291 291 290 289 289 289 289 289 289 288 288
309 310 309 310 312 312 313 313 315 317 312 306 304 304 306 312 316 313 306 303 304 306 307 308 309 308 308 308 308 309 309 309 308 308 307 307 307 308 308 308 308 308 308 307 307 306 306 305 304 304 303 302 301 301 301 301 300 300 299 299 299 299 297 296 296 295 295 294 294 294 293 293 293 292 292 291 291 290 290 289 289 289 289 289 288 288
310 311 310 311 311 312 313 314 314 313 308 305 306 308 307 309 311 307 304 303 304 305 306 307 308 308 308 309 309 309 308 308 307 307 307 307 307 307 307 306 306 306 305 305 305 304 303 303 302 301 300 299 299 299 299 299 299 299 299 298 298 297 297 296 296 295 295 295 294 294 293 293 292 292 292 291 291 290 290 289 289 288 288 288 288 288
310 309 310 312 311 311 312 311 308 305 303 303 305 306 306 307 306 306 306 306 305 305 305 305 306 307 308 309 308 308 307 307 306 306 305 305 305 305 304 304 303 303 303 303 303 302 301 300 299 298 297 297 297 297 297 298 298 298 297 297 297 297 296 296 296 295 295 295 294 294 293 293 292 292 292 291 291 290 290 289 289 288 288 288 288 288
306 303 306 310 311 308 307 306 303 301 302 302 303 303 305 306 305 305 307 306 305 306 305 304 305 306 306 307 307 306 306 305 305 304 303 303 303 302 301 301 300 300 301 301 300 299 298 297 297 296 296 296 296 296 296 296 296 296 295 296 296 295 296 296 295 295 295 295 294 294 293 293 292 292 291 291 291 290 290 289 289 288 288 288 288 288
303 301 304 309 311 310 309 306 302 301 301 301 302 302 303 305 305 305 306 306 305 305 304 304 304 304 304 305 305 305 305 304 303 303 302 301 301 300 299 299 298 298 299 299 298 297 297 296 295 295 295 295 295 295 295 295 294 294 294 294 294 293 294 294 294 294 294 294 294 293 293 293 293 292 292 291 291 290 290 289 289 288 288 288 288 288
305 302 305 310 310 307 305 302 298 298 299 300 301 302 303 304 305 305 305 305 304 303 303 303 303 303 303 303 303 303 304 303 302 301 300 299 298 298 297 297 297 297 297 297 297 296 295 295 295 294 294 294 294 294 293 293 293 292 292 292 292 292 292 292 291 292 292 291 292 292 292 292 292 292 292 291 291 291 291 290 290 290 290 290 289 289
304 304 306 308 307 304 301 297 296 298 301 300 300 302 303 303 304 304 304 304 303 303 303 303 303 303 302 301 301 301 301 301 300 299 298 297 297 297 296 296 296 296 296 296 295 295 295 294 294 293 293 293 293 293 292 292 292 292 291 291 291 291 291 291 291 291 290 290 290 290 290 290 290 290 290 290 291 291 291 291 291 290 291 291 290 290
303 305 305 305 305 305 303 299 299 304 306 303 301 303 303 303 304 303 302 302 302 302 302 302 302 302 301 300 299 298 298 298 298 297 296 296 296 296 295 295 295 296 295 295 295 294 293 293 293 293 293 292 292 292 292 292 291 291 291 291 291 291 291 291 290 290 290 290 290 290 290 290 290 290 290 290 290 290 290 290 290 290 290 290 290 290
302 304 304 304 305 306 303 300 300 304 306 305 304 305 304 304 304 303 301 301 301 301 301 301 301 300 299 298 297 297 296 296 296 296 296 295 295 295 295 295 295 295 294 294 294 293 293 293 293 292 292 292 292 292 292 292 291 291 291 291 291 290 290 290 290 290 290 290 290 290 290 290 290 290 290 290 290 290 290 289 290 290 290 289 289 289
Wind_Speed
6 4 2 5 8 9 9 10 9 6 6 5 4 3 4 4 5 5 5 6 7 5 5 9 9 11 12 11 12 16 20 22 23 22 22 25 28 32 33 32 32 30 27 25 22 20 18 18 17 15 14 13 13 13 14 17 18 19 20 21 23 21 18 18 19 21 21 17 17 19 19 18 17 16 15 13 12 11 10 10 10 10 10 9 9 9
5 4 6 11 11 9 8 8 7 4 3 2 2 3 5 4 6 7 4 5 3 4 6 6 7 11 11 11 13 12 13 19 27 26 27 30 31 34 35 34 33 30 28 26 24 21 19 18 18 16 15 14 15 15 15 17 19 20 19 21 24 23 19 17 19 20 19 16 18 20 19 19 17 16 15 13 12 12 12 12 12 12 12 11 11 10
2 3 12 14 7 5 5 6 6 5 5 4 2 2 5 4 4 7 5 3 1 4 5 4 4 9 11 10 12 13 16 22 31 33 34 35 35 36 36 36 35 32 30 29 26 23 20 20 19 17 16 16 16 16 16 17 20 21 20 21 23 23 20 20 20 19 19 20 20 19 18 18 17 17 15 14 15 14 14 14 14 13 13 12 12 11
4 6 14 13 7 7 4 4 6 4 3 5 4 3 5 4 2 4 5 3 1 2 3 3 4 7 8 8 10 18 23 23 26 31 35 37 36 37 38 38 38 37 35 33 29 26 23 22 21 19 18 19 18 19 18 18 21 23 22 22 23 21 20 21 20 19 21 23 22 20 19 18 17 17 17 16 17 16 15 15 14 13 13 12 12 12
7 6 6 7 9 8 6 4 6 4 4 5 6 6 6 5 6 6 4 3 3 4 2 2 6 6 7 10 11 11 14 18 20 22 29 36 36 35 34 37 39 39 38 35 32 28 25 24 24 21 21 21 21 21 21 20 22 24 23 24 25 23 21 20 19 19 20 21 22 21 21 20 19 19 19 19 19 18 16 16 16 16 16 15 16 16
9 6 3 7 7 7 7 5 6 7 5 5 6 10 10 8 8 5 1 4 4 5 4 2 4 6 5 9 11 4 3 10 15 16 25 33 33 33 33 36 39 38 37 35 32 29 27 26 25 23 24 25 23 23 23 22 22 24 24 24 24 23 21 20 20 20 20 21 22 21 22 22 22 23 22 20 20 20 19 19 20 21 20 19 18 18
5 7 6 7 7 7 7 5 6 8 5 4 6 10 11 8 7 5 3 2 1 4 4 2 2 7 6 6 9 4 4 9 10 11 21 28 30 34 36 37 39 39 38 35 32 29 27 27 27 26 27 28 26 26 27 24 23 24 23 23 22 21 21 21 23 23 21 22 22 20 20 21 22 24 24 21 21 22 22 23 23 23 21 19 17 16
4 8 7 6 7 6 6 5 6 8 7 4 5 7 9 8 7 6 6 4 3 3 4 3 3 5 8 6 6 6 7 9 10 11 17 23 28 33 36 37 39 40 39 37 34 30 28 28 29 28 28 29 28 29 30 26 26 27 25 24 24 23 21 22 23 23 21 21 20 20 21 21 21 22 24 25 24 25 25 25 23 22 21 19 16 15
4 9 10 9 7 5 7 5 7 10 6 6 3 6 7 6 5 4 5 3 1 2 4 4 1 3 9 5 1 2 7 9 13 15 17 21 27 32 34 35 36 38 38 38 35 32 30 30 30 29 28 29 29 31 31 28 28 29 26 25 26 24 23 24 23 22 21 19 19 20 22 23 23 24 26 27 26 26 25 23 23 21 20 18 16 14
2 6 10 10 7 7 6 2 7 11 6 4 6 7 6 5 5 5 4 3 2 1 6 6 3 4 8 3 2 1 4 9 12 13 13 17 26 31 33 33 34 36 38 37 35 32 30 30 30 30 29 30 31 31 31 28 29 28 25 26 28 26 25 25 23 23 21 20 19 21 22 24 27 28 28 28 27 26 24 23 22 20 19 17 15 13
2 1 4 5 4 5 5 3 3 8 8 8 7 6 7 6 5 4 3 4 1 4 6 9 9 6 7 2 4 3 4 8 9 9 9 11 20 27 31 33 35 36 38 37 35 32 29 29 31 31 32 33 33 31 31 31 31 29 27 28 28 26 26 25 24 23 22 21 20 21 23 25 27 27 27 28 27 26 24 22 21 20 18 16 13 12
4 0 1 2 4 6 8 5 3 2 7 8 5 5 4 4 4 4 4 4 2 6 5 8 10 9 9 5 4 5 5 5 6 7 9 8 14 23 29 33 35 36 38 38 36 33 31 32 33 34 34 35 34 32 32 34 33 31 29 28 27 27 27 26 25 24 23 22 22 22 25 26 25 24 24 25 25 25 23 21 19 18 16 14 13 11
3 4 2 1 3 6 7 4 4 4 2 4 5 6 4 2 2 2 3 0 4 6 4 4 5 5 10 7 5 8 9 8 9 12 12 10 13 21 27 32 35 37 38 38 37 35 34 35 37 37 37 37 36 34 34 35 35 32 30 28 28 28 28 27 26 25 24 24 24 25 27 26 24 23 23 23 22 22 21 18 16 15 14 13 12 11
3 5 1 1 3 8 10 6 3 1 3 6 6 7 5 2 1 3 4 2 4 5 4 1 3 3 6 4 9 13 12 11 12 16 17 15 14 18 23 30 34 37 38 38 38 37 36 37 38 39 39 39 38 37 36 36 35 33 31 30 30 29 29 27 26 26 25 25 26 27 27 25 24 23 23 22 20 20 19 16 15 13 13 12 11 11
4 6 5 7 4 10 12 9 7 5 5 7 5 6 6 6 5 4 4 4 4 3 4 1 2 4 2 2 7 8 8 10 15 19 19 16 16 16 20 27 32 36 38 38 38 37 36 37 38 39 40 40 39 39 38 36 34 33 33 32 32 31 30 28 27 27 28 28 28 28 27 25 24 23 23 21 19 19 17 16 14 13 13 12 11 11
5 6 7 6 3 11 12 7 7 7 2 4 3 4 5 6 6 2 3 5 3 2 3 3 4 5 4 5 7 5 7 8 14 18 17 17 16 15 19 27 32 36 38 39 39 38 37 37 38 39 41 41 41 41 40 38 36 35 35 34 33 32 30 28 28 29 29 30 30 29 28 26 25 24 23 22 20 18 17 15 14 14 13 12 11 10
3 5 5 1 1 5 8 5 6 5 3 2 3 4 4 4 5 2 3 1 3 3 4 3 6 6 3 7 7 6 8 8 8 12 14 15 14 15 21 27 33 36 39 40 41 40 39 38 38 40 42 42 42 42 41 40 38 37 36 36 34 33 31 30 30 31 31 32 31 30 29 27 25 24 23 21 20 19 17 16 15 14 14 13 11 10
5 4 4 2 2 4 2 4 4 3 4 5 4 6 2 2 2 2 2 2 2 4 5 3 7 6 2 6 3 2 6 10 8 9 11 11 13 18 23 28 32 35 38 39 40 39 39 38 39 41 42 43 43 43 42 41 39 37 36 36 35 34 33 32 32 32 33 33 33 32 30 28 26 24 23 20 19 19 18 18 17 15 14 13 11 10
4 3 4 1 2 3 3 4 1 5 4 4 4 6 4 1 1 2 2 2 1 3 5 2 5 6 6 6 1 3 9 12 11 10 7 10 16 22 24 27 31 33 36 39 40 40 40 39 39 41 43 43 43 43 42 41 40 38 37 36 35 34 34 34 34 34 34 34 33 32 30 29 27 25 23 21 20 19 18 18 18 16 15 14 12 10
3 3 3 1 0 1 2 3 5 0 3 4 3 4 2 2 3 3 3 3 3 3 4 3 3 5 7 7 6 10 12 12 12 10 8 14 22 24 25 28 31 35 37 39 40 41 41 40 39 41 43 44 44 43 42 41 41 39 38 37 36 35 35 35 35 35 36 35 34 32 31 30 28 26 24 22 21 20 19 19 18 17 16 15 13 12
2 3 3 2 2 1 2 4 8 9 6 4 4 5 3 1 2 1 1 2 4 2 3 3 7 8 4 5 9 12 12 11 12 10 10 19 24 24 26 30 33 36 37 38 40 41 41 41 40 41 43 43 43 43 42 42 42 40 39 38 38 38 37 37 37 37 36 36 35 34 32 30 29 27 25 24 23 21 21 20 19 18 17 16 14 12
3 3 3 1 1 3 5 5 6 9 9 7 8 9 8 6 4 2 3 2 3 3 4 3 8 11 4 3 4 7 7 9 12 12 12 18 22 24 29 32 33 35 36 37 38 39 40 41 41 42 43 44 44 45 45 44 43 41 41 40 40 40 39 38 39 38 37 36 35 34 32 31 29 28 27 26 25 24 23 22 21 20 18 17 15 14
4 3 3 3 3 5 6 5 3 3 3 3 3 5 7 7 7 6 6 4 3 3 3 3 5 9 3 2 2 3 4 6 10 12 14 19 19 21 27 30 31 33 34 35 36 37 39 41 42 42 44 45 46 47 47 46 45 43 42 42 42 41 40 39 39 38 37 36 36 35 33 32 31 30 29 28 27 26 25 24 22 21 19 18 17 16
4 2 4 2 1 2 4 5 3 3 3 1 2 3 6 9 9 6 4 3 3 6 4 3 6 9 3 1 2 3 5 7 9 12 16 19 18 18 23 26 29 31 33 34 35 36 38 40 42 43 45 47 48 49 49 48 46 45 44 44 43 42 41 40 40 39 38 37 36 36 35 33 32 31 31 29 28 27 26 25 24 23 21 20 18 17
7 3 3 3 1 3 3 3 2 1 1 4 4 4 7 10 9 3 1 2 3 8 8 5 10 10 2 3 3 3 4 5 8 10 13 17 18 18 21 24 27 31 33 34 35 36 39 41 43 45 46 48 49 50 50 50 48 47 46 46 45 43 42 41 41 40 39 38 37 37 36 35 34 33 32 31 30 29 28 26 25 24 23 22 20 19
8 3 5 6 6 8 6 6 5 3 2 2 3 6 9 11 12 7 2 4 7 7 8 7 14 10 2 2 3 3 4 4 7 8 10 15 19 19 21 23 27 31 34 36 36 38 40 41 44 46 47 49 50 51 52 51 50 49 48 47 46 45 43 42 42 41 40 39 39 38 38 36 35 34 33 32 31 30 28 28 27 26 24 23 22 20
3 2 9 12 11 13 10 5 4 7 7 7 9 11 12 12 12 9 5 8 7 2 5 13 16 14 11 7 5 6 4 4 7 7 9 15 18 20 22 23 27 31 34 35 36 38 40 42 45 47 48 50 51 52 53 53 52 51 50 49 47 46 45 44 43 42 41 40 39 39 38 37 36 35 33 32 31 30 29 28 27 26 25 24 22 20
3 3 11 13 15 17 10 3 6 10 12 14 14 13 13 12 12 12 12 12 6 4 10 16 11 13 21 15 11 12 7 5 7 10 15 18 19 21 21 23 26 30 33 35 37 39 41 43 46 48 49 50 51 52 53 54 54 53 51 50 49 48 47 45 44 43 42 41 41 40 39 38 37 35 34 33 32 31 30 29 28 26 25 24 23 21
4 7 9 9 15 19 11 5 6 8 8 9 12 13 14 15 16 18 19 16 10 8 17 16 9 14 23 17 12 11 9 11 14 16 19 19 19 20 21 24 28 31 34 37 39 42 43 44 47 49 50 50 51 53 54 54 53 53 52 51 50 50 48 46 45 44 43 42 42 41 40 38 37 36 35 34 33 33 32 30 29 28 27 25 23 22
3 5 4 6 11 17 13 6 6 7 4 5 11 13 15 18 21 21 19 18 16 15 20 18 13 19 21 12 9 11 14 18 16 15 17 17 18 20 22 26 30 32 36 38 40 42 43 44 46 47 48 50 52 53 54 54 54 53 53 52 51 51 49 47 46 45 44 44 43 42 40 39 38 37 36 35 34 34 32 31 30 29 28 27 25 24
3 2 1 4 5 13 14 8 7 8 7 7 9 12 17 18 17 15 15 15 15 16 20 19 18 20 13 6 8 13 13 12 11 13 18 19 19 19 21 26 30 31 35 36 38 39 40 42 43 45 48 50 52 53 53 54 54 53 53 52 52 51 50 48 47 45 45 44 43 42 41 40 39 38 37 36 36 35 33 32 31 30 29 29 27 25
4 2 2 3 4 10 10 8 8 7 5 6 12 18 20 14 9 11 14 14 14 16 18 16 15 18 10 5 5 9 10 11 13 16 19 20 21 21 22 26 28 30 32 33 35 36 39 42 44 46 49 50 51 53 53 54 54 54 54 53 52 51 50 48 47 46 46 45 43 43 42 41 40 39 39 38 37 36 34 33 32 32 31 31 28 26
5 4 2 3 5 8 5 6 7 4 3 7 14 20 18 12 11 13 13 15 17 15 13 13 15 18 11 4 5 7 8 11 14 18 21 23 24 24 25 26 26 28 30 31 33 36 39 42 44 45 47 49 51 53 53 54 54 54 54 53 52 51 50 49 48 47 46 45 44 44 44 42 42 41 40 39 38 37 36 34 35 34 33 32 29 27
6 7 5 4 4 5 3 6 6 5 8 9 6 7 11 15 18 17 15 18 19 15 13 14 15 17 11 6 9 11 11 15 21 26 27 26 25 26 26 25 24 23 25 28 32 35 36 37 39 41 44 46 48 50 50 51 52 52 51 51 50 51 50 49 49 48 47 46 45 46 45 44 43 42 41 40 39 38 37 36 36 35 34 33 30 28
8 8 5 3 2 2 4 6 4 8 10 6 2 1 7 13 17 19 19 21 20 17 17 18 18 19 15 12 15 16 18 23 27 28 27 25 25 27 27 26 23 21 23 26 28 30 30 32 35 37 38 40 43 45 47 49 49 49 49 49 49 50 50 49 49 48 47 47 47 47 47 46 44 43 42 41 39 38 38 38 38 37 35 34 31 29
9 7 3 3 3 1 3 6 8 5 3 4 3 3 1 3 7 10 13 18 19 17 17 19 22 22 19 19 21 19 19 21 21 22 24 24 25 25 26 24 20 18 18 19 19 20 20 22 24 26 28 32 35 39 42 45 46 47 48 48 48 49 49 48 48 48 48 48 49 49 49 47 45 44 43 41 41 40 40 40 39 38 37 35 32 30
9 7 3 3 4 3 3 7 4 5 8 9 5 3 5 6 8 9 8 13 15 16 16 17 20 21 19 22 24 19 13 11 10 13 17 20 20 20 18 15 12 11 11 11 11 12 12 14 16 18 22 26 29 32 35 38 42 45 46 47 47 47 47 47 48 48 49 49 50 50 49 47 46 45 44 43 43 43 43 42 41 39 38 36 34 33
6 7 6 6 5 4 5 6 3 3 9 10 5 5 8 8 8 10 6 9 8 13 19 18 17 19 17 15 14 10 8 6 6 7 10 14 15 13 11 9 8 8 8 8 9 11 12 15 17 18 21 23 25 27 29 32 36 39 42 44 45 45 46 47 48 49 49 50 51 50 49 47 47 46 45 44 44 45 44 43 41 40 38 37 36 35
3 3 5 6 4 4 5 6 5 6 7 5 4 4 6 8 9 9 1 7 5 8 16 17 15 16 14 11 12 12 8 6 7 7 13 14 11 10 10 9 8 7 7 7 8 9 10 11 13 14 17 19 21 23 25 28 30 33 36 38 39 42 44 45 46 47 48 48 49 49 48 47 46 46 45 45 45 45 44 43 41 40 39 38 38 36
3 2 4 6 6 6 7 6 4 4 5 5 5 5 7 11 12 10 1 8 6 4 8 12 13 13 13 16 16 11 7 8 6 10 15 11 7 10 11 9 8 8 8 8 8 8 8 8 10 12 14 15 16 18 20 22 25 28 30 31 35 38 39 40 42 43 43 45 45 46 46 45 44 45 45 45 45 45 44 43 41 41 40 40 40 39
3 3 4 7 8 8 9 8 4 3 5 6 6 10 14 12 8 6 7 6 5 5 5 9 12 14 16 20 19 12 11 10 8 11 12 7 6 9 10 9 10 8 7 7 7 7 9 10 10 11 11 11 13 15 17 19 22 24 26 29 33 33 32 33 35 36 37 39 40 41 41 41 41 42 42 43 43 44 44 44 43 42 41 41 42 41
3 3 3 6 7 7 7 7 4 5 6 7 9 14 17 10 3 8 6 4 6 8 5 6 10 13 17 22 20 15 12 8 7 9 10 7 6 7 8 9 10 9 8 9 8 9 10 11 12 12 11 11 13 14 16 18 20 22 25 28 28 26 26 28 29 30 31 33 33 34 35 36 37 38 39 39 40 42 44 44 44 44 43 43 43 43
5 4 4 5 5 4 4 5 5 6 5 18 18 9 8 5 4 9 10 6 6 8 7 6 8 12 18 21 16 11 8 7 7 8 8 8 7 8 9 9 9 9 9 9 9 10 10 11 11 12 12 13 14 15 17 18 19 20 22 23 20 19 21 23 23 24 26 27 28 29 30 31 32 33 35 35 36 38 40 42 44 45 45 44 44 44
5 5 4 5 6 5 4 7 6 3 9 26 20 6 9 10 7 14 15 8 7 9 8 7 6 10 18 18 13 10 9 8 8 8 7 8 9 9 10 9 8 8 8 8 9 10 10 11 11 12 13 14 15 16 17 17 17 18 18 15 13 15 17 18 19 21 22 23 25 26 27 28 29 30 31 32 33 35 37 39 41 44 45 46 46 46
6 6 4 3 5 4 3 5 3 1 12 24 12 3 14 17 11 13 13 9 9 10 7 6 6 8 14 15 13 12 11 9 10 10 9 10 11 10 9 9 9 9 9 9 10 10 10 11 11 11 13 13 14 14 15 15 15 14 12 10 11 13 15 16 18 19 20 22 23 24 25 26 27 28 29 31 32 34 35 36 38 41 43 45 46 47
4 3 2 2 3 2 2 3 2 1 11 19 8 5 15 18 12 12 11 8 9 9 7 7 7 7 10 11 11 13 12 10 11 11 10 11 11 10 10 10 11 11 11 12 12 11 11 12 11 11 12 12 13 13 12 12 11 10 8 9 11 12 14 15 17 18 19 21 21 22 23 24 26 27 28 29 31 32 33 34 35 37 39 42 45 47
2 4 3 2 4 4 3 3 3 2 8 15 10 6 12 14 13 13 11 7 8 10 10 10 8 7 8 8 9 12 12 11 11 12 12 11 10 10 11 11 11 12 12 12 11 11 12 13 13 12 11 11 11 10 10 10 9 8 9 10 11 12 13 15 16 17 18 19 19 20 21 22 24 25 26 28 29 30 31 32 33 35 37 40 42 44
4 7 5 2 4 5 2 3 2 2 6 12 11 9 10 12 13 13 11 9 10 12 13 11 8 7 7 6 8 10 11 12 12 11 11 11 10 10 11 12 12 12 12 13 13 12 12 13 12 12 10 9 9 8 8 8 8 9 10 10 11 12 13 14 15 16 16 16 16 17 18 19 20 22 23 24 25 26 28 29 31 33 35 36 38 40
7 9 6 2 3 2 1 3 2 2 2 9 13 13 11 11 12 13 12 13 15 15 13 11 8 5 5 5 7 9 11 12 12 10 10 10 9 10 13 13 13 13 14 14 13 13 13 12 10 9 8 7 7 8 8 8 9 10 10 11 12 13 14 15 15 15 15 15 16 16 16 17 18 18 19 21 22 23 25 26 28 30 31 32 34 36
6 7 4 3 4 3 2 6 8 3 1 9 17 18 15 12 13 15 15 16 17 16 13 11 9 8 7 7 8 10 11 12 11 10 9 8 9 11 14 14 14 15 15 14 14 14 13 11 9 8 7 7 7 7 7 8 9 10 10 11 13 13 15 15 16 16 16 16 16 16 17 17 17 18 18 19 20 22 23 24 26 28 28 30 31 33
5 5 5 6 5 4 6 16 18 8 3 12 21 21 18 17 17 18 19 19 18 17 14 12 11 11 11 11 11 11 9 9 9 8 7 8 10 13 14 14 14 14 14 14 14 13 12 11 10 9 8 8 8 8 8 9 9 10 10 11 12 13 15 16 17 17 18 18 18 18 18 19 19 20 21 21 22 23 24 25 26 27 28 29 30 32
Wind_Direction
149 122 145 202 214 211 204 195 202 194 155 148 144 162 202 222 265 253 266 262 180 167 241 220 222 242 246 253 249 225 211 218 229 231 229 225 223 223 223 225 226 226 226 224 221 217 215 219 222 226 229 225 217 203 192 190 185 181 181 177 176 176 177 185 192 189 186 190 192 188 188 188 181 181 182 180 180 179 178 172 166 164 162 162 159 157
142 150 215 223 216 204 199 196 201 192 169 184 168 227 253 225 254 256 254 281 181 173 260 241 229 253 250 252 259 229 199 218 225 224 228 227 226 226 224 225 225 225 224 222 221 216 214 216 218 222 220 216 212 200 194 192 187 182 178 179 183 181 176 180 185 185 186 187 183 177 177 179 178 177 182 185 182 177 172 164 159 159 157 158 159 158
164 206 235 230 196 155 179 179 181 205 215 231 217 248 267 239 267 278 271 298 163 178 262 272 239 258 258 253 252 225 208 225 228 225 230 229 226 224 223 223 223 221 220 220 220 217 214 213 216 217 209 206 207 200 195 189 186 184 176 176 182 180 180 183 184 188 191 188 184 184 185 188 188 183 183 186 178 171 167 161 157 158 156 159 161 156
194 237 243 227 164 142 199 178 156 187 229 224 214 218 252 242 233 276 284 301 290 223 255 286 281 269 266 264 252 234 227 235 238 234 236 234 230 229 227 225 223 220 218 217 217 215 211 210 213 211 203 199 198 197 194 186 184 184 180 183 182 180 183 179 176 180 184 182 181 183 185 188 192 188 183 179 170 166 165 160 156 155 152 154 154 145
216 242 237 186 161 172 199 188 161 177 240 235 212 207 229 232 214 235 282 318 329 329 333 331 305 278 250 250 254 242 228 239 244 236 236 236 234 235 231 226 224 222 221 219 216 215 212 211 212 205 199 198 196 196 194 186 184 184 184 188 184 180 182 180 180 184 188 188 184 184 184 186 190 183 176 175 167 162 162 158 150 145 141 143 141 137
239 240 135 127 158 179 182 202 190 182 218 257 224 208 216 219 218 227 340 19 359 326 326 15 298 279 257 244 254 263 201 238 243 231 233 235 231 231 229 225 222 221 222 223 221 220 215 212 210 202 197 199 197 194 191 185 185 184 180 180 180 181 187 192 195 195 199 202 199 200 197 191 187 174 169 173 166 159 157 151 144 139 137 138 137 133
230 211 164 132 155 171 183 221 216 183 184 256 236 204 204 200 196 192 148 98 272 264 295 55 186 271 283 240 238 226 204 244 247 237 238 235 228 225 226 225 221 218 217 218 219 220 217 212 209 204 199 199 197 190 188 186 188 189 185 184 187 191 194 194 194 195 199 202 204 208 201 190 185 173 165 165 161 155 152 146 142 140 138 138 136 133
166 186 189 157 151 161 186 223 220 176 163 240 245 180 178 183 192 194 169 185 228 248 316 11 121 269 279 252 226 189 199 253 260 253 248 236 228 225 224 224 221 218 215 213 213 214 216 214 210 207 201 199 197 192 191 193 195 196 197 199 195 193 194 192 193 196 199 203 205 201 192 185 184 174 160 156 155 152 150 146 143 142 140 139 138 137
142 175 195 182 175 188 200 214 183 156 168 244 215 136 148 163 169 152 140 175 304 21 296 300 111 263 271 265 329 177 202 247 255 249 248 236 229 226 223 222 219 217 216 215 215 215 216 214 210 208 202 198 197 194 195 197 196 194 196 200 197 194 196 195 195 198 198 201 200 192 188 181 175 169 157 153 154 152 151 149 146 145 144 143 142 139
131 192 197 178 183 207 203 207 164 163 190 202 132 93 76 76 80 78 105 122 40 337 240 238 176 242 268 229 98 62 205 233 245 247 251 239 231 227 222 219 217 215 214 215 216 217 218 213 208 206 202 199 197 196 197 197 195 196 196 197 197 195 196 196 196 197 194 194 193 189 188 179 169 165 158 156 157 154 154 154 150 150 148 146 145 140
339 235 202 184 193 188 148 83 153 177 166 132 105 65 50 34 40 46 51 83 31 266 227 209 189 206 273 254 159 189 205 217 231 248 262 243 228 225 221 217 215 213 212 212 212 214 215 211 206 204 202 198 198 199 199 198 196 198 199 199 198 196 197 198 197 195 191 190 190 188 186 178 170 166 162 161 160 157 159 159 154 152 150 147 144 138
333 329 220 212 179 134 107 77 31 136 140 121 90 82 76 349 12 22 356 50 236 256 224 207 192 192 241 256 212 239 259 235 219 235 257 243 218 218 218 217 215 213 211 209 208 209 208 205 202 201 201 199 199 200 198 200 199 197 199 200 199 198 198 198 195 192 189 185 185 185 182 178 174 170 167 166 164 161 163 163 157 155 153 149 145 138
277 240 256 307 188 157 127 97 38 24 108 118 98 111 118 314 3 343 305 63 231 260 270 217 179 205 243 246 235 257 270 249 224 230 248 255 233 221 218 217 214 211 209 207 206 207 206 204 201 200 200 199 200 199 197 202 200 195 198 202 201 200 198 196 194 189 185 182 181 181 180 179 176 172 170 169 166 163 165 165 161 158 156 153 148 141
257 293 284 101 250 197 167 160 171 213 192 170 144 145 161 168 175 250 261 271 258 269 302 221 164 250 277 259 227 235 249 248 244 247 253 261 255 238 227 218 212 208 208 207 207 206 206 204 202 201 199 199 200 198 198 201 198 195 199 202 202 202 198 195 192 187 182 180 179 180 181 180 177 173 171 171 168 164 164 165 163 160 159 157 151 145
218 291 205 178 205 190 184 190 177 141 166 190 164 151 172 168 173 212 214 229 254 280 298 261 179 206 215 260 239 243 269 261 254 257 259 265 264 250 231 214 207 207 207 208 208 207 207 206 204 202 201 201 200 199 199 199 197 198 200 201 201 202 198 193 190 186 181 178 179 181 182 181 178 175 172 171 169 167 167 168 167 165 162 160 154 149
199 269 231 207 174 170 184 193 146 112 147 220 136 134 198 187 173 206 202 184 180 286 283 218 223 223 207 258 259 263 289 265 253 260 262 263 258 239 219 207 205 207 206 207 208 207 208 208 206 205 203 202 201 200 200 200 199 200 200 201 201 201 199 193 188 186 182 180 181 182 183 182 179 177 175 173 171 171 171 173 174 172 166 163 159 152
179 278 269 262 359 185 186 170 143 147 184 179 141 185 212 169 153 203 261 73 98 254 263 199 242 283 307 275 253 219 249 263 268 267 257 253 244 222 213 206 204 206 206 207 209 208 208 208 207 206 204 203 201 201 201 201 202 201 201 202 201 201 200 195 189 188 185 182 183 184 184 184 182 180 180 179 177 175 176 177 177 177 171 166 164 158
175 261 280 146 209 250 176 112 82 55 119 129 183 201 174 67 97 136 250 348 45 255 266 214 241 271 271 271 308 116 231 257 268 259 252 249 230 215 214 207 205 207 207 208 208 208 209 209 208 206 205 204 203 202 203 203 203 202 203 204 202 201 199 195 191 189 187 185 185 186 186 185 183 182 183 184 184 184 183 182 180 180 178 172 169 165
170 236 287 115 193 285 42 118 97 15 69 123 175 177 138 135 217 124 172 228 199 251 277 262 251 254 217 224 281 155 215 234 242 240 245 242 224 216 213 207 205 206 205 206 207 208 209 210 210 207 205 204 204 204 205 205 204 203 205 206 206 204 200 196 193 190 189 188 187 188 187 186 185 184 185 187 189 190 189 188 185 183 182 178 174 171
157 206 270 341 281 331 36 168 192 183 40 60 107 152 130 135 182 171 168 179 166 225 275 300 290 257 218 191 185 204 212 215 224 226 230 236 228 218 211 206 204 205 206 207 208 209 209 210 210 208 205 204 203 204 206 206 205 204 205 205 206 205 201 198 196 192 191 190 189 190 188 187 187 186 189 192 193 194 192 191 191 187 185 184 180 176
130 209 241 329 350 195 193 205 191 180 171 155 153 171 189 132 121 164 201 145 136 176 231 264 277 269 231 170 185 206 210 207 212 213 223 237 232 221 215 212 209 208 208 210 210 210 210 209 210 208 206 205 204 204 206 207 206 205 205 205 204 204 201 199 198 195 193 191 191 192 190 188 189 189 192 194 195 196 195 193 193 190 189 187 184 182
172 196 181 163 239 210 229 251 216 193 182 180 187 189 186 170 145 172 232 197 145 195 189 188 271 271 235 165 195 205 205 209 212 212 226 240 234 225 222 218 215 213 212 213 212 210 210 209 209 207 205 205 205 205 206 207 207 206 206 204 204 204 202 201 200 197 194 193 193 194 193 192 192 193 195 196 196 197 197 196 194 193 192 190 188 186
158 132 154 197 213 214 244 284 268 201 156 144 199 191 174 175 174 182 217 208 158 227 200 123 275 274 240 168 229 237 238 241 233 224 235 247 242 233 229 222 217 216 215 216 214 212 212 210 209 207 205 206 206 206 206 207 207 207 207 205 205 205 204 203 202 199 196 195 195 195 195 195 196 197 198 199 199 199 199 198 196 195 195 194 194 192
140 149 196 223 311 301 300 318 347 34 85 116 245 177 171 198 199 188 201 173 161 222 199 126 258 264 283 288 266 279 280 273 257 237 238 251 252 241 235 226 218 216 215 216 215 213 212 211 210 208 207 206 207 207 207 208 208 209 208 207 206 206 205 204 203 201 198 197 197 197 197 198 199 200 201 201 202 202 201 199 198 198 197 197 198 198
170 184 180 176 307 323 324 303 285 317 181 200 220 191 190 201 196 178 77 109 210 221 175 165 247 250 309 325 307 336 319 283 264 249 245 254 255 247 239 228 219 216 215 215 214 212 212 212 211 210 208 208 207 207 208 209 210 210 208 208 207 207 207 205 204 203 200 198 199 199 200 201 202 203 203 203 204 204 202 201 201 200 199 199 200 200
173 174 165 181 216 223 222 221 214 194 176 205 204 187 197 200 190 189 192 196 232 219 154 191 245 254 336 328 300 332 331 292 272 261 251 251 252 250 242 231 221 217 215 214 213 212 213 213 213 212 210 209 209 208 209 210 211 211 209 209 209 209 208 207 205 204 202 200 201 202 203 203 204 205 205 206 206 205 204 203 202 202 201 200 200 200
149 205 192 196 214 222 222 219 171 135 151 205 206 189 197 204 194 193 209 217 217 169 184 221 238 257 268 253 253 273 265 260 270 268 259 254 250 248 243 234 224 218 217 216 213 213 214 215 215 213 212 211 210 210 210 211 212 211 209 209 209 210 210 208 206 205 203 203 203 205 206 206 207 207 207 208 207 206 205 204 204 203 202 201 200 199
98 233 213 209 222 230 226 176 159 159 175 201 202 192 200 201 191 196 214 218 177 131 242 237 216 248 260 249 243 258 255 246 255 254 256 257 252 245 240 232 223 218 217 215 213 215 216 216 216 214 213 212 211 211 212 213 213 212 211 210 210 211 211 210 208 206 205 205 206 207 209 209 209 209 209 209 209 208 207 206 205 204 204 203 201 199
141 213 218 209 228 239 231 148 157 177 179 193 196 196 201 198 197 205 215 219 193 190 245 247 192 224 253 253 244 245 234 232 241 246 253 257 252 245 236 227 222 218 215 214 216 218 218 218 217 215 214 213 211 212 212 213 213 213 212 212 212 212 212 211 209 207 207 207 208 209 210 210 210 210 210 211 210 209 208 206 206 206 206 206 202 200
162 211 210 187 226 249 241 187 166 187 182 191 201 204 206 205 206 209 214 221 216 219 242 250 238 243 253 253 244 238 232 235 241 244 246 246 245 240 231 226 224 218 216 217 219 219 219 219 218 215 213 213 213 213 213 213 214 214 213 214 213 213 213 211 210 209 209 209 210 210 211 211 212 212 212 212 212 210 209 208 208 208 207 206 204 204
178 212 67 133 221 256 247 211 180 197 210 220 223 221 218 215 212 213 219 223 222 230 241 247 255 259 253 215 228 238 228 226 228 230 234 237 238 235 228 227 225 221 220 221 220 219 218 218 218 216 215 215 215 215 215 216 216 215 215 216 216 215 214 212 211 211 211 211 211 212 212 213 214 214 215 214 213 211 210 210 210 210 209 208 207 207
167 195 44 98 212 251 244 211 199 208 219 243 251 242 229 216 205 212 219 219 214 224 237 242 250 256 245 163 200 223 205 209 221 222 227 230 228 228 228 228 228 225 225 224 222 222 222 222 221 220 218 218 217 217 218 218 218 217 217 218 218 217 215 214 213 213 213 213 213 214 214 215 215 216 217 216 214 213 212 212 212 212 211 210 209 209
153 164 165 154 210 250 238 176 177 179 192 235 246 242 228 202 198 215 222 223 218 215 225 230 237 249 246 170 192 219 202 212 224 223 226 227 223 224 229 231 232 231 231 232 232 230 228 226 224 223 222 221 220 221 221 220 220 220 220 220 219 218 217 216 215 215 215 215 215 216 217 217 217 218 218 217 215 214 213 214 215 214 214 212 211 211
166 175 194 178 198 239 195 128 132 183 221 235 238 226 208 194 200 213 220 225 221 214 223 234 241 252 251 202 215 231 219 221 232 235 237 236 228 226 229 231 235 237 236 238 238 235 233 231 229 228 227 225 225 224 222 222 222 223 222 221 220 220 219 218 217 217 217 217 218 219 219 219 219 219 220 219 217 216 216 216 217 216 215 214 214 215
176 185 197 178 182 214 139 124 177 217 227 247 350 341 213 198 199 209 223 230 224 217 227 240 248 253 249 233 234 239 235 234 238 241 242 241 239 237 235 233 234 234 234 236 237 237 236 235 233 232 232 231 230 228 227 226 225 224 223 223 223 223 222 221 220 219 219 219 220 221 221 220 221 221 221 220 219 219 219 219 218 218 217 216 216 217
172 186 189 172 187 160 131 185 219 247 281 283 314 323 275 154 173 203 234 244 233 220 221 232 241 247 248 246 245 245 244 243 242 242 242 241 241 241 239 234 226 221 225 230 235 238 238 237 236 237 238 238 236 234 233 232 230 228 227 227 227 226 225 224 223 222 222 223 224 224 223 222 222 222 222 222 223 223 222 220 220 220 218 218 218 218
168 179 183 196 203 185 197 221 238 327 303 268 255 219 178 161 163 178 224 251 235 217 215 225 238 244 244 247 245 240 239 244 250 251 245 240 235 231 232 230 215 205 211 219 226 232 235 238 239 240 242 241 240 240 239 237 234 232 231 230 230 230 229 228 228 228 228 228 228 227 226 225 224 224 224 225 227 226 224 222 222 221 220 220 220 220
182 187 184 201 212 185 209 238 236 266 263 254 240 208 192 185 171 164 206 259 234 204 208 217 232 238 240 241 231 207 186 209 253 251 221 212 208 201 200 202 192 187 194 201 213 221 225 230 232 234 236 238 239 240 239 238 236 234 234 234 234 234 233 233 234 234 233 233 232 231 230 229 228 228 228 229 230 229 227 225 224 224 224 224 225 225
203 205 185 199 208 188 209 230 215 227 246 236 217 210 181 167 142 117 151 267 244 201 205 209 222 237 235 211 181 157 156 212 246 211 177 176 179 179 184 189 185 188 195 202 218 226 226 229 227 227 230 231 233 233 233 234 235 234 235 236 235 235 236 237 238 238 237 237 237 236 235 234 233 232 232 233 234 232 231 228 227 227 227 227 228 228
180 184 195 207 210 203 211 224 224 242 246 217 205 198 170 158 136 109 188 256 251 234 210 203 217 232 217 189 172 160 186 219 207 171 169 170 173 182 188 194 201 212 215 214 224 228 233 242 239 237 237 231 225 224 226 230 231 231 233 234 234 235 237 240 241 240 240 241 241 241 241 239 238 237 237 238 238 237 235 232 230 230 230 230 230 229
180 192 197 210 217 213 215 228 246 254 235 217 193 169 156 143 137 172 221 226 208 217 209 197 214 222 201 182 174 182 209 208 170 163 174 178 180 186 195 204 210 218 219 216 223 226 229 233 228 226 227 220 213 213 217 222 226 228 230 231 233 236 239 242 243 243 244 244 244 245 245 244 244 243 243 243 242 240 238 235 233 232 233 232 232 232
180 187 194 212 220 217 222 230 241 257 231 173 146 154 153 143 192 217 199 148 164 186 184 187 213 214 194 183 183 191 200 189 161 165 171 173 186 200 208 209 210 217 221 219 218 215 214 214 209 205 204 203 205 210 213 218 223 226 229 231 235 239 243 245 247 247 247 247 247 248 249 248 248 248 246 246 245 243 241 238 236 235 235 235 235 235
170 161 186 213 202 192 237 219 213 268 204 143 132 142 175 191 211 171 147 129 161 169 161 174 204 202 187 181 182 188 190 180 172 170 165 171 188 198 202 207 212 220 221 217 214 211 207 207 206 205 204 203 205 209 212 218 223 227 231 235 239 244 246 246 247 248 248 248 249 249 250 250 250 250 249 249 248 247 245 243 240 238 237 236 237 238
177 171 187 215 190 170 213 210 203 285 171 155 148 161 199 200 179 147 144 145 162 166 163 161 178 195 191 189 189 188 187 183 180 180 180 184 188 191 196 201 204 207 208 206 206 207 205 205 205 204 204 204 204 207 212 216 221 225 229 232 234 237 238 239 241 242 243 244 246 248 249 250 251 252 252 251 250 249 248 246 243 241 240 239 239 240
206 191 171 190 192 177 203 212 218 344 173 172 167 145 175 184 176 146 143 146 159 170 173 159 157 180 190 199 203 193 185 182 179 182 187 187 184 182 183 186 188 194 201 203 202 201 198 198 198 198 199 198 197 201 204 206 211 216 216 215 217 220 223 226 231 235 237 239 243 245 248 250 251 252 252 252 251 251 249 248 246 244 242 241 241 242
229 204 137 120 191 217 273 218 216 307 181 181 177 132 161 175 176 158 148 146 162 176 178 167 161 159 169 186 194 188 186 183 176 176 178 178 180 180 181 187 191 195 200 201 198 194 189 184 183 186 189 189 189 191 193 195 198 199 196 198 205 209 214 220 226 230 234 237 241 244 246 248 249 250 251 251 252 252 252 251 250 248 247 246 245 245
260 189 151 130 185 200 228 201 187 239 199 187 184 168 165 172 179 173 162 156 172 180 173 164 158 152 160 174 184 187 188 182 176 177 177 176 183 187 189 197 200 198 197 194 189 186 183 178 174 175 178 182 185 187 188 191 193 191 192 198 203 207 214 220 225 230 234 237 241 242 244 246 246 247 249 250 251 251 251 251 250 248 248 247 246 247
194 170 168 209 200 187 229 246 243 282 219 200 199 194 180 179 183 181 173 171 177 176 172 168 165 165 173 178 182 186 185 179 180 183 179 178 186 191 194 201 202 196 187 180 179 178 175 171 169 170 174 179 184 190 195 198 203 207 210 214 216 219 224 227 230 234 237 239 242 243 243 245 246 247 249 250 250 251 251 250 250 249 248 248 247 247
147 159 169 180 166 152 296 267 256 12 277 226 218 208 195 190 191 188 184 183 184 181 181 182 180 185 204 204 190 185 181 178 180 182 180 183 186 189 194 197 193 184 177 172 171 169 167 166 165 165 170 179 189 202 210 215 221 223 222 224 226 227 229 231 232 235 238 239 242 244 245 247 249 250 251 252 252 253 253 254 254 254 254 254 253 253
150 171 171 133 158 195 212 185 177 150 221 224 216 208 200 196 198 199 195 189 188 191 194 195 191 195 208 207 190 180 178 178 178 177 180 185 185 184 186 184 177 173 171 169 168 167 166 167 165 164 174 188 198 210 221 228 231 230 229 229 230 231 233 234 236 239 242 244 247 248 250 252 253 253 254 254 255 256 256 257 257 257 258 257 256 256
178 177 167 157 180 220 192 179 179 171 177 202 202 202 200 200 204 207 204 198 196 199 201 204 204 200 198 194 182 175 176 180 183 183 182 180 176 174 174 172 169 169 170 170 172 173 174 175 177 181 190 200 207 215 223 228 231 232 232 233 235 237 238 238 240 243 247 250 252 254 256 258 258 259 259 259 260 260 259 260 260 259 260 259 258 258